Kokomo, IN

8:13 AM EDT on September 22, 2017 (GMT -0400)
Kokomo Municipal

Weather History for KOKK - January, 2012

Change the Weather History Date:

Sunday, January 29, 2012

  Actual Average (KGUS) Record (KGUS)
Temperature  
Mean Temperature 30 °F -  
Max Temperature 35 °F 31 °F 59 °F (2013)
Min Temperature 26 °F 18 °F -6 °F (2014)
Degree Days  
Heating Degree Days 34    
Moisture  
Dew Point 18 °F    
Average Humidity 58    
Maximum Humidity 75    
Minimum Humidity 48    
Precipitation  
Precipitation 0.00 in - - ()
Sea Level Pressure  
Sea Level Pressure 30.11 in    
Wind  
Wind Speed 19 mph (WSW)    
Max Wind Speed 30 mph    
Max Gust Speed 38 mph    
Visibility 10 miles    
Events      
Averages and records for this station are not official NWS values.
T = Trace of Precipitation, MM = Missing Value Source: NWS Daily Summary

Daily Weather History Graph

Daily Weather History Graph

Search for Another Location

Airport or City:

Trip Planner

Search our weather history database for the weather conditions in past years. The results will help you decide how hot, cold, wet, or windy it might be!

Date:

Astronomy

Jan. 29, 2012 Rise Set
Actual Time 6:57 AM CST 4:58 PM CST
Civil Twilight 6:27 AM CST 5:27 PM CST
Nautical Twilight 5:55 AM CST 6:00 PM CST
Astronomical Twilight 5:22 AM CST 6:32 PM CST
Moon 9:46 AM CST (1/29) 11:44 PM CST (1/29)
Length of Visible Light 10h 59m
Length of Day
10h 01m
Waxing Crescent, 37% of the Moon is Illuminated
Jan 29
Waxing Crescent
Jan 30
First Quarter
Feb 7
Full
Feb 14
Last Quarter
Feb 21
New

Hourly Weather History & Observations

Time (CST) Temp. Windchill Dew Point Humidity Pressure Visibility Wind Dir Wind Speed Gust Speed Precip Events Conditions
12:15 AM 33.8 °F 23.5 °F 17.6 °F 52% 30.11 in 10.0 mi SW 16.1 mph 26.5 mph N/A   Partly Cloudy
12:35 AM 33.8 °F 22.8 °F 17.6 °F 52% 30.09 in 10.0 mi SW 18.4 mph 24.2 mph N/A   Partly Cloudy
1:15 AM 33.8 °F 21.9 °F 17.6 °F 52% 30.09 in 10.0 mi SW 21.9 mph 27.6 mph N/A   Clear
1:35 AM 33.8 °F 20.8 °F 17.6 °F 52% 30.09 in 10.0 mi WSW 26.5 mph 31.1 mph N/A   Clear
1:55 AM 33.8 °F 21.9 °F 17.6 °F 52% 30.09 in 10.0 mi SW 21.9 mph 31.1 mph N/A   Clear
2:15 AM 33.8 °F 21.6 °F 17.6 °F 52% 30.09 in 10.0 mi SW 23.0 mph 31.1 mph N/A   Clear
2:35 AM 33.8 °F 21.9 °F 17.6 °F 52% 30.08 in 10.0 mi WSW 21.9 mph 26.5 mph N/A   Clear
2:55 AM 32.0 °F 20.5 °F 17.6 °F 55% 30.08 in 10.0 mi SW 18.4 mph 27.6 mph N/A   Clear
3:15 AM 32.0 °F 19.8 °F 17.6 °F 55% 30.08 in 10.0 mi SW 20.7 mph 27.6 mph N/A   Clear
3:35 AM 32.0 °F 20.8 °F 17.6 °F 55% 30.07 in 10.0 mi SW 17.3 mph 24.2 mph N/A   Clear
3:55 AM 32.0 °F 20.8 °F 17.6 °F 55% 30.07 in 10.0 mi SW 17.3 mph - N/A   Clear
4:15 AM 32.0 °F 21.2 °F 17.6 °F 55% 30.06 in 10.0 mi SW 16.1 mph - N/A   Clear
4:35 AM 32.0 °F 21.2 °F 17.6 °F 55% 30.06 in 10.0 mi SW 16.1 mph - N/A   Clear
4:55 AM 32.0 °F 21.2 °F 17.6 °F 55% 30.05 in 10.0 mi SW 16.1 mph 21.9 mph N/A   Clear
5:15 AM 32.0 °F 20.8 °F 17.6 °F 55% 30.04 in 10.0 mi SW 17.3 mph 21.9 mph N/A   Clear
5:55 AM 32.0 °F 20.5 °F 17.6 °F 55% 30.02 in 10.0 mi SW 18.4 mph 26.5 mph N/A   Clear
6:15 AM 32.0 °F 20.1 °F 17.6 °F 55% 30.02 in 10.0 mi SW 19.6 mph 26.5 mph N/A   Clear
6:35 AM 32.0 °F 19.8 °F 17.6 °F 55% 30.02 in 10.0 mi SW 20.7 mph 28.8 mph N/A   Clear
7:35 AM 33.8 °F 22.5 °F 17.6 °F 52% 30.00 in 10.0 mi SW 19.6 mph 26.5 mph N/A   Clear
7:55 AM 33.8 °F 21.6 °F 17.6 °F 52% 30.02 in 10.0 mi WSW 23.0 mph 26.5 mph N/A   Clear
8:15 AM 33.8 °F 22.8 °F 19.4 °F 56% 30.02 in 10.0 mi WSW 18.4 mph 25.3 mph N/A   Partly Cloudy
8:55 AM 33.8 °F 22.2 °F 17.6 °F 52% 30.01 in 10.0 mi WSW 20.7 mph 24.2 mph N/A   Mostly Cloudy
9:15 AM 33.8 °F 21.9 °F 19.4 °F 56% 30.01 in 10.0 mi WSW 21.9 mph 26.5 mph N/A   Scattered Clouds
9:35 AM 35.6 °F 24.2 °F 17.6 °F 48% 30.02 in 10.0 mi West 21.9 mph 28.8 mph N/A   Partly Cloudy
9:55 AM 33.8 °F 22.2 °F 19.4 °F 56% 30.03 in 10.0 mi West 20.7 mph 34.5 mph N/A   Mostly Cloudy
10:35 AM 30.2 °F 18.9 °F 21.2 °F 69% 30.04 in 1.2 mi West 16.1 mph 23.0 mph N/A   Overcast
10:55 AM 30.2 °F 18.1 °F 23.0 °F 75% 30.04 in 2.5 mi WSW 18.4 mph 24.2 mph N/A   Overcast
11:15 AM 30.2 °F 17.8 °F 21.2 °F 69% 30.04 in 10.0 mi West 19.6 mph 26.5 mph N/A   Mostly Cloudy
11:35 AM 33.8 °F 20.5 °F 21.2 °F 60% 30.03 in 10.0 mi West 27.6 mph 33.4 mph N/A   Overcast
11:55 AM 33.8 °F 20.5 °F 21.2 °F 60% 30.04 in 10.0 mi West 27.6 mph 36.8 mph N/A   Mostly Cloudy
12:15 PM 33.8 °F 20.8 °F 21.2 °F 60% 30.04 in 10.0 mi WNW 26.5 mph 29.9 mph N/A   Mostly Cloudy
12:35 PM 33.8 °F 20.5 °F 21.2 °F 60% 30.05 in 10.0 mi West 27.6 mph 38.0 mph N/A   Overcast
12:55 PM 33.8 °F 20.1 °F 19.4 °F 56% 30.06 in 10.0 mi West 29.9 mph 36.8 mph N/A   Overcast
1:15 PM 32.0 °F 18.9 °F 19.4 °F 60% 30.07 in 10.0 mi West 24.2 mph 35.7 mph N/A   Overcast
1:35 PM 33.8 °F 20.5 °F 19.4 °F 56% 30.08 in 10.0 mi WNW 27.6 mph 38.0 mph N/A   Overcast
1:55 PM 32.0 °F 19.5 °F 19.4 °F 60% 30.09 in 10.0 mi West 21.9 mph 29.9 mph N/A   Overcast
2:15 PM 32.0 °F 18.9 °F 17.6 °F 55% 30.10 in 10.0 mi WNW 24.2 mph 29.9 mph N/A   Overcast
2:35 PM 33.8 °F 22.5 °F 19.4 °F 56% 30.11 in 10.0 mi WNW 19.6 mph 31.1 mph N/A   Overcast
2:55 PM 32.0 °F 20.1 °F 17.6 °F 55% 30.13 in 10.0 mi WNW 19.6 mph 26.5 mph N/A   Mostly Cloudy
3:15 PM 32.0 °F 19.8 °F 17.6 °F 55% 30.14 in 10.0 mi WNW 20.7 mph 28.8 mph N/A   Scattered Clouds
3:35 PM 32.0 °F 19.8 °F 17.6 °F 55% 30.14 in 10.0 mi West 20.7 mph 26.5 mph N/A   Scattered Clouds
3:55 PM 32.0 °F 20.1 °F 17.6 °F 55% 30.15 in 10.0 mi WNW 19.6 mph - N/A   Overcast
4:15 PM 30.2 °F 18.1 °F 17.6 °F 60% 30.17 in 10.0 mi WNW 18.4 mph - N/A   Scattered Clouds
4:35 PM 30.2 °F 18.5 °F 17.6 °F 60% 30.18 in 10.0 mi West 17.3 mph 24.2 mph N/A   Clear
4:55 PM 30.2 °F 18.9 °F 15.8 °F 55% 30.19 in 10.0 mi West 16.1 mph 20.7 mph N/A   Clear
5:15 PM 28.4 °F 17.5 °F 15.8 °F 59% 30.19 in 10.0 mi West 13.8 mph - N/A   Partly Cloudy
5:35 PM 28.4 °F 18.5 °F 15.8 °F 59% 30.20 in 10.0 mi West 11.5 mph - N/A   Clear
5:55 PM 28.4 °F 19.7 °F 15.8 °F 59% 30.20 in 10.0 mi West 9.2 mph - N/A   Clear
6:15 PM 28.4 °F 18.5 °F 15.8 °F 59% 30.21 in 10.0 mi West 11.5 mph - N/A   Clear
6:35 PM 28.4 °F 20.4 °F 15.8 °F 59% 30.21 in 10.0 mi West 8.1 mph - N/A   Clear
6:55 PM 28.4 °F 20.4 °F 17.6 °F 64% 30.22 in 10.0 mi West 8.1 mph - N/A   Clear
7:15 PM 28.4 °F 21.2 °F 17.6 °F 64% 30.23 in 10.0 mi West 6.9 mph - N/A   Mostly Cloudy
7:35 PM 28.4 °F 19.7 °F 17.6 °F 64% 30.24 in 10.0 mi West 9.2 mph - N/A   Overcast
7:55 PM 28.4 °F 19.1 °F 17.6 °F 64% 30.24 in 10.0 mi West 10.4 mph - N/A   Mostly Cloudy
8:15 PM 28.4 °F 19.1 °F 17.6 °F 64% 30.24 in 10.0 mi West 10.4 mph - N/A   Scattered Clouds
8:35 PM 28.4 °F 19.1 °F 17.6 °F 64% 30.24 in 10.0 mi West 10.4 mph - N/A   Partly Cloudy
8:55 PM 26.6 °F 17.5 °F 17.6 °F 69% 30.25 in 10.0 mi West 9.2 mph - N/A   Clear
9:15 PM 26.6 °F 19.1 °F 17.6 °F 69% 30.25 in 10.0 mi West 6.9 mph - N/A   Clear
9:35 PM 26.6 °F 19.1 °F 15.8 °F 64% 30.25 in 10.0 mi West 6.9 mph - N/A   Clear
10:15 PM 24.8 °F 19.1 °F 14.0 °F 64% 30.25 in 10.0 mi WSW 4.6 mph - N/A   Clear
10:35 PM 24.8 °F 20.5 °F 14.0 °F 64% 30.25 in 10.0 mi WSW 3.5 mph - N/A   Clear
10:55 PM 24.8 °F 20.5 °F 15.8 °F 69% 30.24 in 10.0 mi SW 3.5 mph - N/A   Clear
11:15 PM 24.8 °F 19.1 °F 14.0 °F 64% 30.24 in 10.0 mi SSW 4.6 mph - N/A   Clear
11:35 PM 24.8 °F 20.5 °F 14.0 °F 64% 30.24 in 10.0 mi South 3.5 mph - N/A   Clear
11:55 PM 23.0 °F 18.4 °F 12.2 °F 63% 30.23 in 10.0 mi SSE 3.5 mph - N/A   Clear